Simultaneous Nadir Overpasses (SNOs) Predictions

Prediction of SNOs between GOES-17 and METOP-B Satellite Orbit:

Table of predicted SNOs for the next 14.0 days since TLE Epoch: 6/8/2024
Index Date Time (GOES-17) GOES-17 Lat,Lon METOP-B Lat,Lon Distance(km) Time Diff (sec)
1 06/08/2024 16:37:01 -0.00,-104.71 0.79,-108.25 403.44 80
2 06/09/2024 16:13:39 -0.02,-104.71 -0.33,-103.25 165.92 80
3 06/11/2024 04:35:15 0.03,-104.70 -0.64,-107.85 358.35 80
4 06/12/2024 04:11:52 0.04,-104.70 0.43,-102.84 211.64 80
5 06/13/2024 16:30:38 -0.04,-104.71 0.57,-107.40 305.77 80
6 06/14/2024 16:12:35 -0.04,-104.72 -0.56,-102.40 264.52 80
7 06/16/2024 04:31:31 0.04,-104.71 -0.45,-106.99 258.88 80
8 06/17/2024 04:08:07 0.04,-104.71 0.64,-101.98 311.41 80
9 06/18/2024 16:26:54 -0.04,-104.73 0.35,-106.54 205.95 80
10 06/19/2024 16:08:50 -0.04,-104.73 -0.74,-101.53 364.19 80
11 06/21/2024 04:27:45 0.04,-104.71 -0.24,-106.12 159.58 80
